{"data":{"norad_id":67772,"epoch":"2026-09-20T14:33:13.266720Z","epoch_age_seconds":79983,"freshness":"FRESH","line1":"1 67772U 26030J   26263.60640355  .00002103  00000+0  30481-3 0  9992","line2":"2 67772  51.8995  43.7123 0000592 110.6840 249.4186 14.79926623 34420","mean_motion":14.79926623,"eccentricity":5.92e-5,"inclination_deg":51.8995,"raan_deg":43.7123,"arg_perigee_deg":110.684,"mean_anomaly_deg":249.4186,"bstar":0.00030481,"rev_number":3442,"period_min":97.302121444436,"perigee_km":629.14090444467,"apogee_km":629.97061526744,"semimajor_km":7007.6927598561,"source":"CELESTRAK","updated_at":"2026-09-21T09:00:16.829156Z"}}